• In Uzbekistan
  • List of Countries
  • For 7 days
  • Water Temperature
  • Satellite Maps
  • Weather Map
  • Weather Widgets
  • user-avatar
    Login

    Hourly Weather Xi'an

    Today, 18 November, Sunday

    Time Temperature Precipitation Wind Pressure Humidity
    00:00 +5°C° 0 mm 2 mps 734 mmHg 57%
    01:00 +5°C° 0 mm 2 mps 734 mmHg 57%
    02:00 +5°C° 0 mm 2 mps 734 mmHg 57%
    03:00 +5°C° 0 mm 2 mps 734 mmHg 57%
    04:00 +5°C° 0 mm 2 mps 734 mmHg 56%
    05:00 +4°C° 0 mm 2 mps 734 mmHg 55%
    06:00 +4°C° 0 mm 2 mps 734 mmHg 53%
    07:00 +5°C° 0 mm 2 mps 734 mmHg 48%
    08:00 +6°C° 0 mm 2 mps 734 mmHg 43%
    09:00 +8°C° 0 mm 2 mps 733 mmHg 37%
    10:00 +9°C° 0 mm 3 mps 733 mmHg 31%
    11:00 +10°C° 0 mm 2 mps 733 mmHg 29%
    12:00 +12°C° 0 mm 2 mps 732 mmHg 27%
    13:00 +13°C° 0 mm 2 mps 731 mmHg 25%
    14:00 +12°C° 0 mm 2 mps 731 mmHg 27%
    15:00 +12°C° 0 mm 1 mps 730 mmHg 29%
    16:00 +12°C° 0 mm 1 mps 730 mmHg 30%
    17:00 +10°C° 0 mm 1 mps 730 mmHg 33%
    18:00 +9°C° 0 mm 1 mps 730 mmHg 35%
    19:00 +7°C° 0 mm 2 mps 731 mmHg 38%
    20:00 +7°C° 0 mm 2 mps 731 mmHg 40%
    21:00 +6°C° 0 mm 2 mps 731 mmHg 42%
    22:00 +6°C° 0 mm 2 mps 731 mmHg 44%
    23:00 +6°C° 0 mm 2 mps 731 mmHg 46%

    Tomorrow, 19 November, Monday

    Time Temperature Precipitation Wind Pressure Humidity
    00:00 +6°C° 0 mm 2 mps 731 mmHg 47%
    01:00 +5°C° 0 mm 2 mps 731 mmHg 49%
    02:00 +5°C° 0 mm 2 mps 731 mmHg 49%
    03:00 +5°C° 0 mm 2 mps 730 mmHg 50%
    04:00 +5°C° 0 mm 2 mps 730 mmHg 50%
    05:00 +5°C° 0 mm 2 mps 730 mmHg 50%
    06:00 +5°C° 0 mm 2 mps 730 mmHg 50%
    07:00 +5°C° 0 mm 2 mps 731 mmHg 50%
    08:00 +7°C° 0 mm 2 mps 731 mmHg 45%
    09:00 +10°C° 0 mm 1 mps 731 mmHg 40%
    10:00 +13°C° 0 mm 1 mps 731 mmHg 35%
    11:00 +13°C° 0 mm 1 mps 730 mmHg 35%
    12:00 +14°C° 0 mm 1 mps 729 mmHg 34%
    13:00 +15°C° 0 mm 1 mps 728 mmHg 33%
    14:00 +14°C° 0 mm 1 mps 728 mmHg 35%
    15:00 +14°C° 0 mm 1 mps 728 mmHg 38%
    16:00 +14°C° 0 mm 1 mps 728 mmHg 40%
    17:00 +12°C° 0 mm 1 mps 728 mmHg 43%
    18:00 +10°C° 0 mm 2 mps 729 mmHg 46%
    19:00 +9°C° 0 mm 2 mps 729 mmHg 50%
    20:00 +9°C° 0 mm 2 mps 729 mmHg 51%
    21:00 +8°C° 0 mm 2 mps 729 mmHg 53%
    22:00 +8°C° 0 mm 2 mps 729 mmHg 55%
    23:00 +8°C° 0 mm 2 mps 729 mmHg 56%

    Day after tomorrow, 20 November, Tuesday

    Time Temperature Precipitation Wind Pressure Humidity
    00:00 +7°C° 0 mm 2 mps 729 mmHg 56%
    01:00 +7°C° 0 mm 2 mps 728 mmHg 57%
    02:00 +7°C° 0 mm 2 mps 728 mmHg 57%
    03:00 +7°C° 0 mm 2 mps 728 mmHg 57%
    04:00 +7°C° 0 mm 2 mps 728 mmHg 57%
    05:00 +8°C° 0 mm 1 mps 728 mmHg 57%
    06:00 +8°C° 0 mm 1 mps 729 mmHg 57%
    07:00 +8°C° 0 mm 1 mps 729 mmHg 56%
    08:00 +10°C° 0 mm 1 mps 729 mmHg 52%
    09:00 +11°C° 0 mm 1 mps 730 mmHg 48%
    10:00 +12°C° 0 mm 1 mps 730 mmHg 44%
    11:00 +12°C° 0 mm 2 mps 730 mmHg 43%
    12:00 +13°C° 0 mm 2 mps 729 mmHg 42%
    13:00 +13°C° 0 mm 2 mps 729 mmHg 41%
    14:00 +12°C° 0.1 mm 2 mps 729 mmHg 44%
    15:00 +12°C° 0.1 mm 2 mps 729 mmHg 48%
    16:00 +11°C° 0.1 mm 1 mps 730 mmHg 52%
    17:00 +10°C° 0.1 mm 1 mps 731 mmHg 55%
    18:00 +9°C° 0.1 mm 2 mps 731 mmHg 59%
    19:00 +8°C° 0.1 mm 2 mps 732 mmHg 62%
    20:00 +7°C° 0 mm 2 mps 733 mmHg 64%
    21:00 +7°C° 0 mm 2 mps 733 mmHg 66%
    22:00 +6°C° 0 mm 2 mps 734 mmHg 68%
    23:00 +6°C° 0 mm 2 mps 734 mmHg 68%

    21 November, Wednesday

    Time Temperature Precipitation Wind Pressure Humidity
    00:00 +5°C° 0 mm 2 mps 735 mmHg 69%
    01:00 +5°C° 0 mm 2 mps 735 mmHg 69%
    02:00 +5°C° 0 mm 2 mps 736 mmHg 66%
    03:00 +3°C° 0 mm 3 mps 736 mmHg 63%
    04:00 +3°C° 0 mm 3 mps 736 mmHg 60%
    05:00 +3°C° 0 mm 3 mps 737 mmHg 56%
    06:00 +3°C° 0 mm 2 mps 737 mmHg 52%
    07:00 +3°C° 0 mm 2 mps 738 mmHg 49%
    08:00 +5°C° 0 mm 2 mps 738 mmHg 43%
    09:00 +7°C° 0 mm 3 mps 738 mmHg 37%
    10:00 +8°C° 0 mm 3 mps 738 mmHg 31%
    11:00 +9°C° 0 mm 3 mps 736 mmHg 31%
    12:00 +10°C° 0 mm 2 mps 735 mmHg 30%
    13:00 +10°C° 0 mm 2 mps 734 mmHg 29%
    14:00 +10°C° 0 mm 2 mps 734 mmHg 31%
    15:00 +10°C° 0 mm 2 mps 734 mmHg 33%
    16:00 +10°C° 0 mm 1 mps 733 mmHg 34%
    17:00 +9°C° 0 mm 1 mps 734 mmHg 36%
    18:00 +8°C° 0 mm 1 mps 734 mmHg 38%
    19:00 +6°C° 0 mm 2 mps 734 mmHg 40%
    20:00 +6°C° 0 mm 2 mps 735 mmHg 40%
    21:00 +6°C° 0 mm 2 mps 735 mmHg 41%
    22:00 +5°C° 0 mm 2 mps 735 mmHg 42%
    23:00 +5°C° 0 mm 2 mps 735 mmHg 42%

    22 November, Thursday

    Time Temperature Precipitation Wind Pressure Humidity
    00:00 +5°C° 0 mm 2 mps 734 mmHg 43%
    01:00 +5°C° 0 mm 2 mps 734 mmHg 44%
    02:00 +5°C° 0 mm 2 mps 733 mmHg 45%
    03:00 +4°C° 0 mm 2 mps 733 mmHg 45%
    04:00 +4°C° 0 mm 2 mps 733 mmHg 46%
    05:00 +4°C° 0 mm 2 mps 733 mmHg 45%
    06:00 +4°C° 0 mm 2 mps 733 mmHg 45%
    07:00 +4°C° 0 mm 2 mps 733 mmHg 45%
    08:00 +7°C° 0 mm 2 mps 733 mmHg 40%
    09:00 +9°C° 0 mm 2 mps 733 mmHg 35%
    10:00 +12°C° 0 mm 2 mps 733 mmHg 30%
    11:00 +13°C° 0 mm 2 mps 732 mmHg 30%
    12:00 +13°C° 0 mm 2 mps 731 mmHg 29%
    13:00 +13°C° 0 mm 3 mps 730 mmHg 29%
    14:00 +13°C° 0.2 mm 2 mps 730 mmHg 33%
    15:00 +12°C° 0.2 mm 1 mps 730 mmHg 36%
    16:00 +11°C° 0.2 mm 1 mps 730 mmHg 40%
    17:00 +11°C° 0.2 mm 1 mps 731 mmHg 43%
    18:00 +10°C° 0.2 mm 1 mps 731 mmHg 47%
    19:00 +9°C° 0.2 mm 1 mps 732 mmHg 50%
    20:00 +9°C° 0 mm 1 mps 732 mmHg 53%
    21:00 +8°C° 0 mm 1 mps 732 mmHg 55%
    22:00 +8°C° 0 mm 1 mps 732 mmHg 58%
    23:00 +7°C° 0 mm 1 mps 732 mmHg 60%

    23 November, Friday

    Time Temperature Precipitation Wind Pressure Humidity
    00:00 +7°C° 0 mm 1 mps 732 mmHg 62%
    01:00 +7°C° 0 mm 1 mps 732 mmHg 64%
    02:00 +6°C° 0 mm 1 mps 731 mmHg 65%
    03:00 +5°C° 0 mm 2 mps 731 mmHg 66%
    04:00 +5°C° 0 mm 2 mps 730 mmHg 67%
    05:00 +5°C° 0 mm 2 mps 730 mmHg 66%
    06:00 +5°C° 0 mm 2 mps 730 mmHg 65%
    07:00 +5°C° 0 mm 2 mps 730 mmHg 64%
    08:00 +8°C° 0 mm 2 mps 730 mmHg 56%
    09:00 +10°C° 0 mm 2 mps 730 mmHg 49%
    10:00 +14°C° 0 mm 1 mps 729 mmHg 41%
    11:00 +15°C° 0 mm 1 mps 728 mmHg 38%
    12:00 +16°C° 0 mm 1 mps 728 mmHg 35%
    13:00 +18°C° 0 mm 1 mps 727 mmHg 32%
    14:00 +16°C° 0 mm 1 mps 727 mmHg 34%
    15:00 +16°C° 0 mm 1 mps 727 mmHg 36%
    16:00 +15°C° 0 mm 1 mps 727 mmHg 38%
    17:00 +14°C° 0 mm 1 mps 727 mmHg 40%
    18:00 +12°C° 0 mm 2 mps 728 mmHg 43%
    19:00 +10°C° 0 mm 2 mps 729 mmHg 45%
    20:00 +10°C° 0 mm 2 mps 729 mmHg 48%
    21:00 +9°C° 0 mm 2 mps 729 mmHg 50%
    22:00 +9°C° 0 mm 2 mps 729 mmHg 52%
    23:00 +9°C° 0 mm 2 mps 729 mmHg 53%
    Show more